QPF
0.00 0.00 0.00 0.00 0.00 0.00 0.00 0.00 0.00 0.00 0.00 0.00 0.00 0.01 0.01 0.01 0.01 0.01 0.01 0.01 0.01 0.01 0.02 0.02 0.02 0.01 0.01 0.01 0.01 0.01 0.01 0.02 0.02 0.02 0.02 0.02 0.03 0.03 0.03 0.03 0.02 0.03 0.03
0.00 0.00 0.00 0.00 0.00 0.00 0.00 0.00 0.00 0.00 0.00 0.00 0.00 0.01 0.00 0.00 0.01 0.01 0.01 0.01 0.02 0.02 0.02 0.02 0.02 0.01 0.01 0.01 0.01 0.01 0.01 0.01 0.02 0.02 0.02 0.02 0.02 0.02 0.03 0.04 0.03 0.03 0.03
0.00 0.00 0.00 0.00 0.00 0.00 0.00 0.00 0.00 0.00 0.01 0.00 0.01 0.01 0.00 0.00 0.00 0.01 0.01 0.01 0.02 0.02 0.01 0.02 0.03 0.03 0.02 0.02 0.02 0.02 0.01 0.01 0.02 0.02 0.02 0.02 0.02 0.03 0.03 0.05 0.06 0.05 0.04
0.00 0.00 0.00 0.00 0.00 0.00 0.00 0.00 0.00 0.00 0.01 0.00 0.01 0.01 0.00 0.00 0.00 0.01 0.01 0.01 0.02 0.02 0.01 0.01 0.02 0.04 0.04 0.03 0.03 0.03 0.03 0.03 0.03 0.03 0.03 0.03 0.03 0.03 0.03 0.04 0.05 0.07 0.07
0.00 0.00 0.00 0.00 0.00 0.00 0.00 0.00 0.00 0.00 0.00 0.00 0.00 0.00 0.00 0.00 0.01 0.01 0.01 0.02 0.02 0.02 0.01 0.01 0.01 0.02 0.04 0.05 0.04 0.04 0.04 0.04 0.04 0.04 0.04 0.04 0.05 0.04 0.04 0.03 0.03 0.04 0.05
0.00 0.00 0.00 0.00 0.00 0.00 0.00 0.00 0.00 0.00 0.00 0.00 0.00 0.01 0.00 0.00 0.01 0.01 0.02 0.02 0.02 0.02 0.01 0.01 0.01 0.01 0.02 0.03 0.05 0.04 0.04 0.05 0.05 0.05 0.05 0.05 0.06 0.05 0.05 0.05 0.04 0.03 0.03
0.00 0.00 0.00 0.00 0.00 0.00 0.00 0.00 0.00 0.01 0.01 0.01 0.01 0.01 0.00 0.01 0.01 0.02 0.02 0.01 0.02 0.01 0.01 0.01 0.01 0.01 0.02 0.02 0.03 0.04 0.04 0.04 0.05 0.05 0.06 0.05 0.05 0.05 0.04 0.03 0.02 0.02 0.02
0.00 0.00 0.00 0.00 0.00 0.00 0.00 0.00 0.00 0.01 0.01 0.01 0.00 0.00 0.00 0.01 0.02 0.02 0.01 0.01 0.01 0.01 0.01 0.02 0.02 0.03 0.02 0.02 0.03 0.03 0.03 0.03 0.03 0.03 0.04 0.05 0.05 0.05 0.05 0.04 0.04 0.03 0.03
0.00 0.00 0.00 0.00 0.00 0.00 0.00 0.00 0.01 0.01 0.00 0.00 0.00 0.00 0.00 0.01 0.01 0.01 0.01 0.01 0.01 0.01 0.01 0.02 0.02 0.03 0.03 0.03 0.03 0.03 0.03 0.03 0.03 0.03 0.04 0.05 0.06 0.06 0.05 0.05 0.04 0.04 0.04
0.00 0.00 0.00 0.00 0.01 0.01 0.01 0.00 0.00 0.00 0.00 0.00 0.00 0.00 0.00 0.00 0.01 0.01 0.01 0.02 0.02 0.02 0.02 0.02 0.02 0.03 0.03 0.02 0.02 0.02 0.03 0.03 0.02 0.02 0.03 0.03 0.04 0.05 0.06 0.04 0.04 0.03 0.03
0.00 0.00 0.00 0.00 0.01 0.01 0.01 0.01 0.00 0.00 0.00 0.00 0.00 0.00 0.00 0.00 0.01 0.01 0.01 0.01 0.02 0.02 0.03 0.03 0.03 0.03 0.02 0.02 0.02 0.02 0.02 0.02 0.02 0.02 0.02 0.03 0.03 0.04 0.04 0.05 0.05 0.04 0.03
0.00 0.00 0.00 0.01 0.01 0.01 0.01 0.01 0.00 0.00 0.00 0.00 0.00 0.00 0.00 0.00 0.00 0.01 0.01 0.02 0.02 0.02 0.02 0.02 0.02 0.03 0.03 0.02 0.02 0.02 0.02 0.02 0.02 0.02 0.03 0.03 0.03 0.03 0.03 0.03 0.03 0.04 0.03
0.00 0.00 0.00 0.01 0.01 0.01 0.01 0.01 0.01 0.00 0.00 0.00 0.00 0.00 0.01 0.01 0.01 0.01 0.01 0.02 0.02 0.02 0.02 0.02 0.02 0.02 0.02 0.03 0.03 0.02 0.01 0.02 0.02 0.03 0.03 0.03 0.02 0.02 0.02 0.02 0.03 0.03 0.03
0.00 0.00 0.01 0.01 0.01 0.01 0.01 0.01 0.01 0.00 0.00 0.00 0.00 0.00 0.00 0.00 0.01 0.01 0.01 0.01 0.02 0.02 0.02 0.02 0.02 0.02 0.02 0.02 0.03 0.02 0.02 0.02 0.02 0.02 0.02 0.02 0.02 0.02 0.02 0.02 0.02 0.02 0.03
0.00 0.00 0.01 0.01 0.01 0.01 0.02 0.01 0.01 0.01 0.01 0.01 0.00 0.00 0.00 0.00 0.01 0.01 0.01 0.01 0.02 0.02 0.02 0.01 0.02 0.02 0.02 0.02 0.02 0.02 0.02 0.02 0.02 0.02 0.02 0.02 0.02 0.02 0.03 0.02 0.02 0.02 0.03
0.00 0.01 0.01 0.01 0.01 0.01 0.02 0.01 0.01 0.01 0.01 0.01 0.01 0.01 0.01 0.01 0.01 0.01 0.01 0.01 0.01 0.01 0.01 0.01 0.01 0.02 0.02 0.02 0.02 0.03 0.03 0.02 0.02 0.02 0.02 0.02 0.02 0.02 0.02 0.02 0.02 0.02 0.03
0.01 0.01 0.01 0.01 0.01 0.01 0.02 0.02 0.02 0.02 0.02 0.02 0.02 0.01 0.01 0.01 0.01 0.01 0.01 0.01 0.01 0.01 0.01 0.01 0.01 0.02 0.02 0.02 0.02 0.02 0.02 0.02 0.02 0.02 0.02 0.02 0.02 0.02 0.02 0.02 0.02 0.02 0.02
0.01 0.01 0.01 0.01 0.01 0.01 0.02 0.02 0.02 0.02 0.02 0.02 0.02 0.02 0.01 0.01 0.01 0.01 0.01 0.00 0.00 0.00 0.00 0.01 0.01 0.01 0.01 0.01 0.01 0.02 0.02 0.02 0.02 0.02 0.01 0.02 0.02 0.03 0.03 0.03 0.03 0.02 0.02
0.01 0.01 0.01 0.01 0.01 0.01 0.01 0.02 0.01 0.01 0.01 0.01 0.01 0.01 0.01 0.01 0.01 0.00 0.00 0.00 0.00 0.00 0.00 0.00 0.01 0.01 0.01 0.01 0.02 0.01 0.02 0.02 0.02 0.02 0.02 0.02 0.02 0.03 0.03 0.03 0.03 0.03 0.03
0.01 0.01 0.01 0.01 0.01 0.01 0.01 0.01 0.01 0.01 0.01 0.01 0.00 0.00 0.00 0.01 0.00 0.00 0.00 0.00 0.00 0.00 0.00 0.00 0.00 0.01 0.01 0.01 0.01 0.01 0.01 0.01 0.01 0.01 0.02 0.02 0.02 0.02 0.02 0.03 0.03 0.03 0.04
0.01 0.01 0.01 0.01 0.01 0.01 0.01 0.01 0.01 0.01 0.01 0.00 0.00 0.00 0.01 0.01 0.00 0.00 0.00 0.00 0.00 0.00 0.00 0.00 0.00 0.00 0.01 0.01 0.01 0.01 0.01 0.01 0.01 0.01 0.01 0.01 0.02 0.02 0.02 0.02 0.02 0.02 0.03
0.01 0.01 0.00 0.00 0.00 0.01 0.01 0.01 0.01 0.01 0.00 0.00 0.00 0.00 0.00 0.00 0.00 0.00 0.00 0.00 0.00 0.00 0.00 0.00 0.00 0.00 0.00 0.00 0.01 0.01 0.01 0.01 0.01 0.01 0.01 0.01 0.01 0.01 0.01 0.02 0.02 0.02 0.02
0.00 0.01 0.01 0.01 0.01 0.01 0.01 0.01 0.01 0.01 0.00 0.00 0.00 0.00 0.00 0.00 0.00 0.00 0.00 0.00 0.00 0.00 0.00 0.00 0.00 0.00 0.00 0.00 0.00 0.01 0.01 0.01 0.01 0.01 0.01 0.01 0.01 0.01 0.01 0.01 0.01 0.02 0.02
0.00 0.00 0.01 0.01 0.01 0.01 0.01 0.01 0.01 0.01 0.01 0.00 0.00 0.00 0.00 0.00 0.00 0.00 0.00 0.00 0.00 0.00 0.00 0.00 0.00 0.00 0.00 0.00 0.00 0.00 0.00 0.01 0.01 0.01 0.01 0.01 0.01 0.01 0.01 0.01 0.01 0.01 0.01
0.00 0.00 0.00 0.00 0.01 0.01 0.01 0.01 0.01 0.01 0.01 0.00 0.00 0.00 0.00 0.00 0.00 0.00 0.00 0.00 0.00 0.00 0.00 0.00 0.01 0.01 0.01 0.01 0.00 0.00 0.01 0.01 0.01 0.01 0.01 0.01 0.01 0.01 0.01 0.01 0.01 0.01 0.01
0.00 0.00 0.00 0.01 0.01 0.01 0.01 0.01 0.01 0.01 0.00 0.00 0.00 0.00 0.00 0.00 0.00 0.00 0.00 0.01 0.00 0.00 0.00 0.01 0.01 0.01 0.01 0.01 0.01 0.01 0.01 0.01 0.01 0.01 0.01 0.01 0.01 0.01 0.01 0.01 0.01 0.01 0.01
MSLP
1017.64 1017.95 1018.29 1018.62 1018.92 1019.16 1019.32 1019.41 1019.45 1019.44 1019.40 1019.34 1019.27 1019.18 1019.06 1018.90 1018.70 1018.45 1018.18 1017.88 1017.58 1017.29 1017.01 1016.74 1016.47 1016.20 1015.91 1015.60 1015.27 1014.93 1014.61 1014.31 1014.06 1013.87 1013.74 1013.65 1013.58 1013.52 1013.41 1013.25 1013.02 1012.71 1012.34
1017.09 1017.43 1017.81 1018.19 1018.53 1018.81 1019.02 1019.15 1019.22 1019.23 1019.20 1019.15 1019.08 1018.99 1018.87 1018.73 1018.55 1018.34 1018.11 1017.86 1017.60 1017.34 1017.09 1016.84 1016.60 1016.35 1016.09 1015.82 1015.55 1015.29 1015.05 1014.85 1014.70 1014.59 1014.53 1014.50 1014.47 1014.41 1014.28 1014.09 1013.81 1013.46 1013.04
1016.48 1016.86 1017.28 1017.71 1018.10 1018.43 1018.68 1018.86 1018.96 1019.00 1018.99 1018.96 1018.90 1018.83 1018.73 1018.62 1018.48 1018.33 1018.15 1017.96 1017.76 1017.56 1017.35 1017.14 1016.93 1016.72 1016.49 1016.27 1016.05 1015.86 1015.70 1015.58 1015.50 1015.47 1015.47 1015.48 1015.46 1015.40 1015.25 1015.02 1014.70 1014.29 1013.81
1015.79 1016.23 1016.70 1017.18 1017.62 1018.00 1018.31 1018.53 1018.67 1018.74 1018.77 1018.77 1018.74 1018.69 1018.64 1018.57 1018.48 1018.38 1018.28 1018.15 1018.02 1017.88 1017.73 1017.57 1017.41 1017.23 1017.05 1016.87 1016.70 1016.56 1016.46 1016.40 1016.39 1016.41 1016.45 1016.47 1016.47 1016.39 1016.23 1015.97 1015.61 1015.15 1014.64
1015.04 1015.53 1016.06 1016.59 1017.09 1017.52 1017.88 1018.15 1018.35 1018.48 1018.55 1018.59 1018.60 1018.59 1018.57 1018.55 1018.52 1018.48 1018.43 1018.38 1018.32 1018.24 1018.15 1018.05 1017.93 1017.80 1017.66 1017.52 1017.40 1017.30 1017.23 1017.21 1017.23 1017.28 1017.34 1017.39 1017.38 1017.31 1017.13 1016.85 1016.47 1015.99 1015.45
1014.27 1014.81 1015.39 1015.97 1016.51 1017.00 1017.41 1017.75 1018.01 1018.20 1018.33 1018.42 1018.47 1018.51 1018.53 1018.55 1018.56 1018.57 1018.57 1018.58 1018.58 1018.56 1018.53 1018.49 1018.42 1018.33 1018.23 1018.12 1018.03 1017.96 1017.92 1017.92 1017.96 1018.02 1018.09 1018.14 1018.13 1018.06 1017.89 1017.61 1017.23 1016.75 1016.20
1013.53 1014.10 1014.70 1015.32 1015.91 1016.45 1016.92 1017.32 1017.65 1017.91 1018.10 1018.25 1018.35 1018.43 1018.48 1018.53 1018.57 1018.61 1018.66 1018.70 1018.75 1018.79 1018.81 1018.81 1018.79 1018.75 1018.69 1018.61 1018.54 1018.48 1018.46 1018.46 1018.50 1018.56 1018.63 1018.68 1018.68 1018.62 1018.46 1018.21 1017.85 1017.40 1016.87
1012.87 1013.44 1014.06 1014.70 1015.32 1015.90 1016.43 1016.89 1017.28 1017.61 1017.86 1018.07 1018.21 1018.32 1018.41 1018.47 1018.53 1018.59 1018.65 1018.73 1018.81 1018.89 1018.95 1019.00 1019.03 1019.02 1018.99 1018.95 1018.89 1018.85 1018.82 1018.82 1018.85 1018.90 1018.96 1019.01 1019.02 1018.97 1018.85 1018.63 1018.31 1017.90 1017.41
1012.33 1012.89 1013.50 1014.14 1014.77 1015.38 1015.94 1016.46 1016.91 1017.29 1017.61 1017.86 1018.04 1018.18 1018.28 1018.35 1018.42 1018.48 1018.56 1018.65 1018.76 1018.87 1018.97 1019.06 1019.13 1019.16 1019.17 1019.14 1019.11 1019.06 1019.03 1019.02 1019.04 1019.07 1019.12 1019.17 1019.19 1019.16 1019.07 1018.89 1018.62 1018.26 1017.82
1011.92 1012.46 1013.04 1013.66 1014.29 1014.90 1015.49 1016.04 1016.54 1016.97 1017.33 1017.61 1017.83 1017.98 1018.09 1018.17 1018.23 1018.30 1018.39 1018.49 1018.62 1018.76 1018.90 1019.03 1019.14 1019.21 1019.24 1019.24 1019.22 1019.18 1019.15 1019.13 1019.13 1019.15 1019.19 1019.23 1019.26 1019.24 1019.18 1019.04 1018.82 1018.51 1018.12
1011.65 1012.15 1012.69 1013.27 1013.88 1014.49 1015.08 1015.65 1016.17 1016.63 1017.01 1017.32 1017.55 1017.71 1017.83 1017.91 1017.98 1018.06 1018.16 1018.28 1018.44 1018.61 1018.79 1018.96 1019.10 1019.21 1019.27 1019.29 1019.28 1019.25 1019.22 1019.19 1019.18 1019.19 1019.22 1019.25 1019.28 1019.28 1019.23 1019.12 1018.94 1018.68 1018.33
1011.48 1011.93 1012.43 1012.97 1013.54 1014.13 1014.71 1015.28 1015.80 1016.26 1016.66 1016.97 1017.21 1017.38 1017.50 1017.59 1017.67 1017.77 1017.88 1018.04 1018.22 1018.43 1018.65 1018.86 1019.04 1019.18 1019.28 1019.32 1019.33 1019.31 1019.28 1019.24 1019.23 1019.23 1019.25 1019.28 1019.31 1019.32 1019.28 1019.19 1019.03 1018.80 1018.49
1011.36 1011.77 1012.22 1012.72 1013.26 1013.81 1014.38 1014.92 1015.43 1015.89 1016.27 1016.58 1016.82 1016.99 1017.11 1017.21 1017.31 1017.43 1017.58 1017.77 1018.00 1018.25 1018.51 1018.76 1018.98 1019.15 1019.27 1019.34 1019.37 1019.36 1019.34 1019.31 1019.30 1019.30 1019.32 1019.36 1019.38 1019.39 1019.36 1019.28 1019.13 1018.92 1018.63
1011.24 1011.61 1012.03 1012.50 1013.00 1013.53 1014.06 1014.58 1015.07 1015.50 1015.86 1016.16 1016.38 1016.55 1016.68 1016.80 1016.92 1017.07 1017.26 1017.50 1017.77 1018.07 1018.37 1018.65 1018.91 1019.11 1019.25 1019.34 1019.39 1019.40 1019.39 1019.38 1019.39 1019.40 1019.43 1019.47 1019.50 1019.50 1019.47 1019.39 1019.25 1019.04 1018.76
1011.09 1011.43 1011.83 1012.28 1012.76 1013.26 1013.77 1014.26 1014.71 1015.11 1015.45 1015.72 1015.92 1016.08 1016.22 1016.35 1016.51 1016.70 1016.93 1017.21 1017.53 1017.87 1018.21 1018.53 1018.81 1019.03 1019.20 1019.31 1019.37 1019.41 1019.43 1019.44 1019.47 1019.51 1019.56 1019.61 1019.64 1019.65 1019.62 1019.53 1019.38 1019.16 1018.88
1010.87 1011.21 1011.60 1012.03 1012.50 1012.99 1013.48 1013.95 1014.37 1014.74 1015.04 1015.29 1015.47 1015.63 1015.77 1015.92 1016.10 1016.33 1016.60 1016.93 1017.29 1017.67 1018.04 1018.38 1018.68 1018.92 1019.10 1019.23 1019.32 1019.38 1019.43 1019.47 1019.53 1019.60 1019.68 1019.75 1019.80 1019.81 1019.77 1019.67 1019.50 1019.26 1018.96
1010.60 1010.94 1011.33 1011.77 1012.24 1012.73 1013.21 1013.66 1014.06 1014.40 1014.68 1014.89 1015.06 1015.21 1015.35 1015.52 1015.73 1015.99 1016.31 1016.67 1017.06 1017.47 1017.86 1018.22 1018.53 1018.79 1018.98 1019.12 1019.23 1019.31 1019.39 1019.47 1019.57 1019.67 1019.78 1019.86 1019.92 1019.94 1019.89 1019.77 1019.58 1019.31 1018.97
1010.31 1010.65 1011.05 1011.50 1011.98 1012.48 1012.96 1013.40 1013.79 1014.11 1014.36 1014.56 1014.72 1014.87 1015.02 1015.20 1015.44 1015.73 1016.08 1016.47 1016.89 1017.31 1017.72 1018.09 1018.40 1018.66 1018.86 1019.01 1019.13 1019.24 1019.34 1019.45 1019.58 1019.71 1019.84 1019.94 1020.01 1020.01 1019.95 1019.81 1019.58 1019.27 1018.89
1010.05 1010.38 1010.79 1011.25 1011.75 1012.25 1012.74 1013.18 1013.56 1013.87 1014.12 1014.32 1014.48 1014.63 1014.79 1015.00 1015.26 1015.58 1015.95 1016.37 1016.80 1017.24 1017.65 1018.02 1018.33 1018.58 1018.78 1018.93 1019.06 1019.18 1019.30 1019.43 1019.57 1019.72 1019.85 1019.96 1020.02 1020.02 1019.93 1019.75 1019.48 1019.12 1018.69
1009.85 1010.17 1010.58 1011.05 1011.55 1012.07 1012.56 1013.01 1013.39 1013.71 1013.97 1014.17 1014.34 1014.52 1014.71 1014.94 1015.23 1015.58 1015.97 1016.41 1016.85 1017.29 1017.70 1018.05 1018.36 1018.60 1018.78 1018.93 1019.05 1019.16 1019.28 1019.41 1019.56 1019.70 1019.83 1019.92 1019.96 1019.92 1019.80 1019.58 1019.26 1018.85 1018.37
1009.76 1010.06 1010.46 1010.92 1011.43 1011.95 1012.45 1012.90 1013.30 1013.63 1013.90 1014.13 1014.34 1014.54 1014.77 1015.04 1015.37 1015.74 1016.16 1016.60 1017.05 1017.48 1017.88 1018.22 1018.49 1018.71 1018.88 1019.00 1019.10 1019.20 1019.30 1019.41 1019.53 1019.65 1019.75 1019.81 1019.81 1019.73 1019.57 1019.30 1018.94 1018.48 1017.94
1009.80 1010.08 1010.46 1010.90 1011.40 1011.91 1012.41 1012.87 1013.28 1013.64 1013.94 1014.21 1014.46 1014.72 1015.00 1015.31 1015.67 1016.07 1016.50 1016.95 1017.40 1017.81 1018.18 1018.49 1018.74 1018.92 1019.05 1019.14 1019.21 1019.27 1019.33 1019.40 1019.47 1019.54 1019.60 1019.61 1019.57 1019.44 1019.23 1018.92 1018.52 1018.03 1017.45
1009.99 1010.24 1010.58 1011.00 1011.47 1011.97 1012.46 1012.92 1013.35 1013.74 1014.09 1014.41 1014.72 1015.03 1015.36 1015.72 1016.12 1016.54 1016.98 1017.43 1017.85 1018.24 1018.58 1018.85 1019.05 1019.19 1019.27 1019.30 1019.32 1019.33 1019.33 1019.34 1019.36 1019.37 1019.36 1019.32 1019.22 1019.05 1018.80 1018.46 1018.03 1017.52 1016.93
1010.31 1010.53 1010.83 1011.22 1011.66 1012.13 1012.61 1013.08 1013.53 1013.95 1014.35 1014.72 1015.09 1015.46 1015.84 1016.25 1016.67 1017.11 1017.54 1017.97 1018.36 1018.71 1018.99 1019.21 1019.35 1019.43 1019.45 1019.43 1019.38 1019.32 1019.26 1019.21 1019.15 1019.10 1019.03 1018.93 1018.78 1018.57 1018.30 1017.94 1017.51 1017.00 1016.42
1010.73 1010.92 1011.20 1011.55 1011.96 1012.41 1012.88 1013.35 1013.82 1014.27 1014.71 1015.14 1015.56 1015.98 1016.40 1016.83 1017.27 1017.70 1018.12 1018.51 1018.85 1019.14 1019.36 1019.51 1019.58 1019.59 1019.54 1019.45 1019.34 1019.21 1019.08 1018.96 1018.84 1018.72 1018.59 1018.44 1018.25 1018.02 1017.73 1017.38 1016.96 1016.48 1015.94
1011.23 1011.41 1011.66 1011.98 1012.36 1012.79 1013.25 1013.72 1014.21 1014.69 1015.16 1015.63 1016.09 1016.55 1016.99 1017.43 1017.86 1018.27 1018.64 1018.97 1019.25 1019.46 1019.61 1019.68 1019.68 1019.61 1019.50 1019.34 1019.16 1018.97 1018.77 1018.58 1018.40 1018.22 1018.04 1017.85 1017.65 1017.41 1017.12 1016.80 1016.42 1015.98 1015.50
Thickness
5535 5533 5531 5529 5528 5526 5525 5525 5524 5524 5523 5522 5522 5522 5522 5523 5523 5524 5525 5526 5527 5527 5528 5529 5530 5530 5531 5531 5532 5533 5534 5535 5538 5542 5542 5544 5544 5545 5547 5549 5550 5552 5554
5527 5525 5522 5520 5518 5517 5516 5515 5514 5514 5513 5512 5512 5512 5512 5512 5512 5513 5514 5514 5515 5515 5516 5517 5518 5519 5519 5519 5520 5521 5522 5523 5525 5529 5530 5531 5532 5533 5534 5536 5538 5540 5541
5518 5516 5513 5511 5509 5507 5506 5505 5504 5503 5502 5502 5502 5502 5502 5502 5502 5502 5503 5503 5503 5504 5505 5506 5506 5506 5507 5507 5508 5509 5510 5513 5514 5516 5518 5518 5519 5521 5522 5524 5525 5526 5528
5510 5507 5505 5502 5500 5498 5497 5495 5494 5493 5492 5492 5492 5491 5491 5492 5492 5492 5492 5492 5492 5493 5494 5494 5495 5496 5495 5495 5496 5497 5499 5500 5502 5504 5506 5506 5506 5508 5509 5510 5512 5512 5514
5501 5498 5496 5494 5491 5489 5487 5485 5484 5483 5482 5481 5481 5482 5481 5482 5482 5483 5483 5482 5482 5482 5483 5484 5484 5485 5485 5485 5486 5486 5488 5489 5490 5492 5493 5494 5494 5495 5496 5498 5499 5500 5502
5492 5490 5488 5484 5482 5479 5477 5476 5474 5473 5473 5472 5472 5473 5472 5473 5474 5474 5473 5472 5472 5472 5473 5473 5474 5474 5474 5475 5476 5476 5478 5478 5479 5480 5481 5482 5483 5483 5484 5485 5486 5487 5489
5484 5482 5479 5476 5473 5470 5468 5466 5465 5464 5464 5464 5464 5464 5463 5463 5465 5465 5464 5463 5462 5462 5462 5462 5464 5464 5464 5463 5464 5465 5466 5468 5469 5470 5470 5471 5471 5472 5473 5474 5474 5473 5474
5475 5473 5470 5467 5464 5462 5459 5457 5456 5455 5455 5454 5454 5454 5454 5454 5455 5455 5455 5453 5452 5452 5451 5451 5452 5452 5453 5453 5453 5453 5454 5456 5458 5459 5460 5460 5460 5461 5462 5462 5462 5461 5461
5466 5464 5462 5459 5456 5454 5451 5450 5449 5447 5447 5446 5446 5445 5445 5445 5446 5446 5445 5444 5443 5442 5442 5442 5442 5442 5444 5444 5443 5443 5444 5445 5446 5447 5448 5448 5449 5450 5450 5450 5449 5449 5449
5460 5458 5455 5452 5449 5447 5445 5443 5442 5440 5439 5439 5438 5437 5437 5437 5438 5438 5437 5435 5434 5434 5433 5433 5433 5434 5434 5434 5433 5433 5433 5434 5434 5435 5436 5436 5436 5437 5437 5437 5437 5436 5435
5453 5451 5448 5445 5443 5441 5438 5436 5435 5433 5432 5430 5430 5430 5429 5429 5430 5430 5429 5427 5426 5425 5424 5424 5424 5425 5425 5424 5424 5423 5423 5423 5423 5423 5424 5424 5424 5424 5425 5425 5425 5424 5423
5445 5443 5440 5438 5436 5434 5431 5429 5427 5425 5424 5423 5422 5422 5421 5421 5422 5422 5422 5420 5419 5417 5416 5415 5414 5415 5415 5414 5413 5413 5413 5413 5412 5412 5411 5412 5412 5412 5413 5413 5413 5412 5412
5437 5435 5433 5431 5428 5427 5424 5422 5420 5418 5417 5416 5415 5414 5414 5414 5413 5414 5413 5413 5411 5409 5407 5407 5406 5405 5404 5403 5402 5402 5401 5400 5400 5400 5400 5400 5400 5401 5401 5401 5401 5401 5401
5429 5427 5425 5423 5421 5419 5417 5415 5413 5411 5410 5410 5408 5408 5407 5406 5405 5404 5404 5403 5402 5400 5398 5397 5396 5395 5393 5392 5391 5390 5389 5388 5388 5388 5388 5389 5389 5390 5390 5390 5389 5389 5389
5421 5419 5417 5416 5414 5411 5410 5409 5408 5407 5406 5405 5403 5402 5400 5399 5399 5398 5396 5394 5393 5391 5389 5387 5385 5383 5381 5380 5379 5378 5378 5377 5377 5377 5377 5378 5379 5379 5379 5379 5378 5377 5376
5413 5412 5410 5408 5406 5404 5402 5401 5402 5401 5401 5400 5399 5396 5395 5394 5393 5392 5390 5388 5386 5384 5381 5378 5376 5374 5372 5370 5369 5368 5368 5367 5367 5367 5367 5367 5367 5367 5367 5367 5366 5364 5364
5407 5405 5404 5402 5400 5398 5396 5395 5394 5393 5393 5393 5392 5391 5389 5388 5386 5385 5383 5381 5379 5376 5372 5369 5367 5365 5363 5361 5359 5358 5357 5357 5356 5356 5356 5356 5355 5355 5355 5355 5354 5353 5352
5400 5399 5397 5395 5394 5392 5390 5389 5387 5386 5384 5384 5384 5384 5383 5381 5380 5378 5375 5372 5369 5367 5364 5361 5359 5357 5354 5352 5350 5349 5348 5347 5346 5346 5345 5344 5343 5343 5343 5343 5342 5341 5340
5392 5391 5390 5388 5387 5386 5384 5382 5380 5379 5378 5376 5375 5375 5375 5373 5372 5370 5367 5363 5360 5358 5355 5353 5351 5348 5346 5343 5341 5340 5338 5337 5336 5335 5334 5333 5332 5331 5331 5331 5330 5330 5328
5386 5386 5384 5382 5380 5379 5377 5375 5374 5372 5370 5369 5368 5367 5365 5363 5361 5360 5358 5355 5352 5350 5347 5345 5343 5340 5338 5335 5333 5331 5329 5328 5326 5325 5324 5322 5322 5321 5320 5320 5319 5317 5316
5379 5378 5378 5376 5374 5373 5371 5369 5368 5366 5364 5363 5362 5360 5359 5356 5354 5351 5349 5347 5344 5342 5340 5337 5335 5333 5330 5328 5326 5323 5321 5319 5318 5316 5314 5313 5312 5311 5310 5309 5307 5305 5304
5372 5371 5370 5369 5368 5366 5365 5363 5361 5360 5358 5356 5355 5353 5352 5348 5345 5343 5341 5339 5337 5334 5332 5330 5328 5326 5323 5321 5318 5316 5313 5311 5309 5307 5305 5303 5302 5301 5299 5298 5296 5294 5293
5365 5364 5363 5362 5360 5360 5358 5356 5354 5352 5351 5349 5347 5345 5343 5340 5338 5335 5333 5331 5329 5327 5325 5323 5320 5318 5316 5314 5312 5309 5306 5304 5302 5299 5296 5294 5292 5291 5289 5287 5286 5284 5283
5357 5356 5355 5354 5353 5351 5350 5348 5346 5344 5343 5340 5339 5337 5335 5333 5330 5328 5325 5323 5321 5319 5317 5315 5314 5312 5309 5307 5304 5302 5300 5297 5294 5291 5289 5286 5284 5282 5280 5278 5277 5275 5274
5349 5348 5347 5346 5345 5344 5342 5340 5338 5337 5335 5333 5331 5329 5327 5325 5322 5319 5317 5315 5313 5312 5310 5308 5306 5304 5302 5300 5297 5295 5293 5290 5288 5285 5282 5279 5277 5275 5273 5271 5269 5267 5265
5342 5341 5340 5338 5337 5336 5334 5333 5331 5329 5327 5325 5323 5321 5319 5316 5314 5311 5309 5307 5306 5304 5303 5301 5300 5297 5295 5293 5291 5288 5286 5284 5281 5279 5276 5273 5270 5268 5266 5264 5262 5260 5259